Terminal Aerodrome Forecast
Issued by NWS King Salmon, AK

Home | Current Version | Previous Version | Text Only | Print | Product List | Glossary On
Versions: 1 2 3 4 5 6 7 8 9 10 11 12 13 14 15 16 17 18
000
FTAK31 PANC 052342
TAFAKN
TAF
PAKN 052342Z 0600/0624 09010G20KT P6SM VCSH FEW040 BKN060
     FM060400 06009KT P6SM -RA BKN040
     FM061200 VRB05KT P6SM VCSH SCT040 OVC060=

USA.gov is the U.S. government's official web portal to all federal, state and local government web resources and services.